Location: Golden Pond Observatory
(36.7667°N, 88.0167°W)
Time: 13:40:52
(UTC-05:00)

Tiangong 2 - Visible Passes

Search period start: 24 June 2018 00:00
Search period end: 04 July 2018 00:00
Orbit: 385 x 396 km, 42.8° (Epoch: 24 June)

Date Brightness Start Highest point End Pass type
(mag) Time Alt. Az. Time Alt. Az. Time Alt. Az.
24 Jun 3.0 04:46:43 10° SSW 04:49:13 21° SE 04:51:43 10° E visible
25 Jun 3.6 03:51:31 11° SSE 03:51:52 12° SE 03:53:02 10° ESE visible
26 Jun 1.8 04:28:54 19° SSW 04:30:51 42° SSE 04:33:55 10° ENE visible
27 Jun 2.8 03:33:54 23° SE 03:33:54 23° SE 03:36:05 10° E visible
28 Jun 1.0 04:11:12 30° WSW 04:12:37 87° SSE 04:15:50 10° ENE visible
29 Jun 2.4 03:16:08 33° E 03:16:08 33° E 03:18:14 10° ENE visible
29 Jun 2.4 04:49:04 10° W 04:52:05 37° NNW 04:55:06 10° NE visible
30 Jun 1.7 03:53:22 33° WNW 03:54:28 52° NNW 03:57:37 10° ENE visible
01 Jul 2.8 02:58:15 32° ENE 02:58:15 32° ENE 03:00:07 10° ENE visible
01 Jul 2.9 04:31:13 10° WNW 04:34:03 29° N 04:36:55 10° NE visible
02 Jul 2.5 03:35:28 28° NW 03:36:24 35° NNW 03:39:23 10° NE visible
03 Jul 3.4 02:40:23 24° NE 02:40:23 24° NE 02:41:54 10° ENE visible
03 Jul 3.2 04:13:20 10° WNW 04:16:05 26° N 04:18:52 10° ENE visible
